Location: Stavanger
(58.9670°N, 5.7500°E)
Time: 02:12:26
(UTC+02:00)

ISS - Pass Details

Date: 29 March 2019
Orbit: 408 x 410 km, 51.6° (Epoch: 26 April)

Event Time Altitude Azimuth Distance (km) Brightness Sun altitude
Rises 21:38:45 0° 260° (W) 2,339 0.6 -17.8°
Reaches altitude 10° 21:41:13 10° 242° (WSW) 1,476 -0.7 -18.1°
Enters shadow 21:43:00 18° 211° (SSW) 1,079 -1.8 -18.3°
